Location: Stockholm
(59.3333°N, 18.0500°E)
Time: 06:28:33
(UTC+02:00)

ISS - Visible Passes

Search period start: 06 May 2021 00:00
Search period end: 16 May 2021 00:00
Orbit: 418 x 421 km, 51.6° (Epoch: 05 May)

Date Brightness Start Highest point End Pass type
(mag) Time Alt. Az. Time Alt. Az. Time Alt. Az.
06 May -1.7 02:48:19 13° S 02:49:37 15° SSE 02:51:40 10° ESE visible
07 May -1.6 02:02:25 13° SSE 02:02:26 13° SSE 02:03:57 10° SE visible
07 May -2.2 03:35:45 10° SW 03:38:24 22° S 03:41:04 10° ESE visible
08 May -2.2 02:49:23 14° SSW 02:51:09 20° SSE 02:53:42 10° ESE visible
09 May -2.1 02:03:25 17° S 02:03:54 18° SSE 02:06:17 10° ESE visible
10 May -1.7 01:17:25 14° SE 01:17:25 14° SE 01:18:44 10° ESE visible
10 May -2.4 02:50:21 12° SW 02:52:43 22° S 02:55:26 10° SE visible
11 May -2.4 02:04:19 18° SSW 02:05:27 22° S 02:08:07 10° ESE visible
12 May -2.3 01:18:14 20° SSE 01:18:14 20° SSE 01:20:45 10° ESE visible
12 May -2.4 02:51:40 10° WSW 02:54:18 21° S 02:56:56 10° SE visible
13 May -1.9 00:32:03 15° SE 00:32:03 15° SE 00:33:18 10° ESE visible
13 May -2.5 02:04:58 13° SW 02:07:02 22° S 02:09:43 10° SE visible
13 May -1.4 23:45:40 10° ESE 23:45:40 10° ESE 23:45:46 10° ESE visible
14 May -2.5 01:18:34 19° SSW 01:19:45 22° S 01:22:27 10° SE visible
14 May -2.2 02:53:32 10° WSW 02:55:49 17° SSW 02:58:06 10° SSE visible
14 May -1.7 22:54:56 10° S 22:57:42 11° SE 22:58:02 10° SE visible
15 May -2.5 00:29:48 10° SW 00:32:27 22° S 00:35:07 10° ESE visible
15 May -2.3 02:06:03 10° WSW 02:08:34 19° SSW 02:11:04 10° SE visible
15 May -2.4 23:42:38 10° SW 23:45:11 20° SSE 23:47:44 10° ESE visible
